Station MACM4 - 9075080 - Mackinaw City, MI Image indicating link to RSS feed of recent meteorological observations for station MACM4


Conditions at MACM4 as of
(10:48 pm EDT on 04/14/2024)
0248 GMT on 04/15/2024:
     

Click on the graph icon in the table below to see a time series plot of the last five days of that observation.

5-day plot - Wind Direction Wind Direction (WDIR):WNW ( 290 deg true )
5-day plot - Wind Speed Wind Speed (WSPD): 5.1 kts
5-day plot - Wind Gust Wind Gust (GST): 7.0 kts
5-day plot - Atmospheric Pressure Atmospheric Pressure (PRES):29.82 in
5-day plot - Air Temperature Air Temperature (ATMP): 43.9 °F
5-day plot - Water Temperature Water Temperature (WTMP): 41.7 °F
5-day plot - Dew Point Dew Point (DEWP): 38.3 °F
5-day plot - Wind Chill Wind Chill (CHILL): 40.5 °F
5-day plot - Wind Speed at 10 Meters Wind Speed at 10 meters (WSPD10M): 5.8 kts
5-day plot - Wind Speed at 20 Meters Wind Speed at 20 meters (WSPD20M): 5.8 kts
5-day plot -  Wind Speed, Wind Gust and Atmospheric Pressure Combined plot of Wind Speed, Gust, and Air Pressure
NOS Water Level Observation Network Water Level
Previous observations
TIME
(EDT)
5-day plot - Wind Direction
WDIR
 
5-day plot - Wind Speed
WSPD
kts
5-day plot - Wind Gust
GST
kts
5-day plot - Wave Height
WVHT
ft
5-day plot - Dominant Wave Period
DPD
sec
5-day plot - Average Wave Period
APD
sec
5-day plot - Mean Wave Direction
MWD
 
5-day plot - Atmospheric Pressure
PRES
in
5-day plot - Pressure Tendency
PTDY
in
5-day plot - Air Temperature
ATMP
°F
5-day plot - Water Temperature
WTMP
°F
5-day plot - Dew Point
DEWP
°F
5-day plot - Salinity
SAL
psu
5-day plot - Visibility
VIS
nmi
5-day plot - Tide (above MLLW)
TIDE
ft
2024-04-14 10:42 pmWNW 5.1 7.0----29.82- 43.9 41.7 38.7---
2024-04-14 10:36 pm NW 5.1 7.0----29.82- 43.5 41.7 39.0---
2024-04-14 10:30 pm NW 7.0 8.0----29.82- 43.7 41.9 39.0---
2024-04-14 10:24 pm NW 6.0 8.0----29.82- 44.2 41.9 38.7---
2024-04-14 10:18 pm NW 6.0 8.9----29.81- 44.8 41.9 38.7---
2024-04-14 10:12 pm NW 6.0 8.9----29.81- 45.1 41.9 38.7---
2024-04-14 10:06 pm NW 7.0 8.9----29.81- 45.3 41.9 38.7---
2024-04-14 10:00 pm NW 5.1 8.9----29.81+0.07 45.9 41.9 38.5---
2024-04-14 09:54 pm NW 6.0 8.0----29.80- 46.0 41.9 38.3---
2024-04-14 09:48 pm NW 5.1 7.0----29.80- 45.7 42.1 38.5---
2024-04-14 09:42 pm NW 4.1 6.0----29.80- 45.9 41.9 39.0---
2024-04-14 09:36 pmNNW 2.9 4.1----29.79- 46.0 41.9 39.6---
2024-04-14 09:30 pmNNW 2.9 4.1----29.79- 46.4 41.9 39.4---
2024-04-14 09:24 pmNNW 2.9 5.1----29.79- 46.2 41.9 39.2---
2024-04-14 09:18 pm N 5.1 6.0----29.78- 46.4 41.9 39.0---
2024-04-14 09:12 pm N 4.1 6.0----29.78- 46.6 41.9 38.7---
2024-04-14 09:06 pmNNE 5.1 6.0----29.78- 46.8 41.9 38.5---
2024-04-14 09:00 pm N 5.1 8.0----29.76+0.04 46.8 41.9 39.7---
2024-04-14 08:54 pm N 4.1 5.1----29.76- 45.9 41.7 40.3---
2024-04-14 08:48 pm N 2.9 5.1----29.76-- 41.7----
2024-04-14 08:42 pmNNW 5.1 7.0----29.76-- 41.7----
2024-04-14 08:36 pm NW 6.0 7.0----29.75-- 41.5----
2024-04-14 08:30 pm-------29.75- 48.6 41.5 39.6---
2024-04-14 08:24 pm-------29.74- 49.1 41.5 39.6---
2024-04-14 08:18 pm NW 7.0 8.0------ 48.7 41.5 39.2---
2024-04-14 08:12 pmWNW 6.0 8.0------ 48.7 41.5 39.0---
2024-04-14 08:06 pm NW 6.0 9.9------ 49.5 41.9 38.7---
2024-04-14 08:00 pm NW 7.0 11.1----29.73+0.04 49.8 41.7 38.5---
2024-04-14 07:54 pm NW 9.9 12.0----29.73- 50.0 41.9 37.8---
2024-04-14 07:48 pm NW 8.9 13.0----29.73- 50.4 41.9 37.8---
2024-04-14 07:42 pm NW 9.9 13.0----29.74- 50.7 41.7 37.8---
2024-04-14 07:36 pm NW 9.9 14.0----29.74- 51.1 41.5 37.8---
2024-04-14 07:30 pm NW 11.1 14.0----29.74- 50.7 41.5 37.8---
2024-04-14 07:24 pm NW 9.9 13.0----29.74- 51.3 41.5 38.3---
2024-04-14 07:18 pm NW 9.9 14.0----29.74- 51.8 41.5 38.5---
2024-04-14 07:12 pm NW 9.9 15.0----29.74- 51.8 41.7 38.5---
2024-04-14 07:06 pm NW 11.1 15.0----29.74- 52.3 41.5 38.1---
2024-04-14 07:00 pm NW 11.1 14.0----29.74+0.07- 41.5----
2024-04-14 06:54 pm NW 12.0 15.9----29.74-- 41.5----
2024-04-14 06:48 pm NW 12.0 15.9----29.74- 51.4 41.5 38.5---
2024-04-14 06:42 pm NW 12.0 15.9----29.74- 51.4 41.5 38.5---
2024-04-14 06:36 pm NW 12.0 15.0----29.73- 52.3 41.5 38.5---
2024-04-14 06:30 pm NW 12.0 15.9----29.73- 51.8 41.5 38.7---
2024-04-14 06:24 pmWNW 13.0 15.9----29.73- 51.8 41.5 38.5---
2024-04-14 06:18 pm NW 13.0 17.1----29.73- 52.0 41.5 38.8---
2024-04-14 06:12 pm NW 12.0 15.9----29.73- 51.8 41.5 39.4---
2024-04-14 06:06 pm NW 12.0 15.9----29.73- 52.3 41.5 39.4---
2024-04-14 06:00 pm NW 12.0 15.9----29.72+0.07 52.2 41.5 39.0---
2024-04-14 05:54 pm NW 12.0 15.9----29.72- 51.4 41.5 39.6---
2024-04-14 05:48 pm NW 12.0 15.0----29.72-- 41.5----
2024-04-14 05:42 pm NW 12.0 18.1----29.71-- 41.5----
2024-04-14 05:36 pm NW 13.0 15.0----29.71-- 41.5----
2024-04-14 05:30 pmWNW 11.1 15.9----29.71-- 41.5----
2024-04-14 05:24 pmWNW 11.1 17.1----29.70-- 41.5----
2024-04-14 05:18 pmWNW 11.1 15.0----29.70- 53.1 41.5 40.1---
2024-04-14 05:12 pmWNW 12.0 17.1----29.70- 53.1 41.5 40.3---
2024-04-14 05:06 pmWNW 13.0 17.1----29.69- 53.6 41.5 40.1---
2024-04-14 05:00 pmWNW 13.0 17.1----29.69+0.06 54.0 41.5 39.9---
2024-04-14 04:54 pmWNW 11.1 19.0----29.69- 54.5 41.4 40.3---
2024-04-14 04:48 pmWNW 12.0 19.0----29.68- 54.1 41.5 40.3---
2024-04-14 04:42 pmWNW 13.0 18.1----29.68- 54.3 41.5 39.9---
2024-04-14 04:36 pmWNW 13.0 18.1----29.68- 54.9 41.5 40.1---
2024-04-14 04:30 pmWNW 13.0 18.1----29.68- 55.0 41.7 40.3---
2024-04-14 04:24 pmWNW 12.0 15.9----29.67- 54.9 41.7 40.3---
2024-04-14 04:18 pmWNW 12.0 18.1----29.67- 54.9 41.7 40.5---
2024-04-14 04:12 pmWNW 9.9 15.9----29.67- 55.2 41.7 40.8---
2024-04-14 04:06 pmWNW 9.9 18.1----29.67- 54.5 41.7 40.6---
2024-04-14 04:00 pmWNW 9.9 15.0----29.67+0.05 54.1 41.7 40.8---
2024-04-14 03:54 pmWNW 14.0 17.1----29.67- 53.2 41.7 40.8---
2024-04-14 03:48 pmWNW 12.0 17.1----29.67- 53.6 41.9 41.0---
2024-04-14 03:42 pm W 11.1 19.0----29.67- 54.1 41.9 41.2---
2024-04-14 03:36 pm W 11.1 20.0----29.67- 54.1 41.9 41.2---
2024-04-14 03:30 pmWNW 13.0 19.0----29.67- 54.1 42.1 40.8---
2024-04-14 03:24 pm W 11.1 19.0----29.66- 55.2 41.9 41.0---
2024-04-14 03:18 pmWNW 14.0 20.0----29.66- 54.7 42.1 41.2---
2024-04-14 03:12 pm W 12.0 17.1----29.66- 54.9 42.3 41.2---
2024-04-14 03:06 pm W 14.0 19.0----29.65- 54.3 42.3 41.2---
2024-04-14 03:00 pm W 14.0 20.0----29.65+0.04------
2024-04-14 02:54 pm W 11.1 19.0----29.65-------
2024-04-14 02:48 pm W 12.0 17.1----29.65- 55.2 42.8 41.7---
2024-04-14 02:42 pm W 14.0 21.0----29.65- 55.2 43.0 41.9---
2024-04-14 02:36 pm W 13.0 21.0----29.64- 55.6 42.8 41.9---
2024-04-14 02:30 pm W 15.9 21.0----29.64- 55.6 43.0 41.9---
2024-04-14 02:24 pm W 12.0 21.0----29.64- 55.4 43.3 42.1---
2024-04-14 02:18 pm W 13.0 17.1----29.63- 55.6 43.2 42.4---
2024-04-14 02:12 pm W 13.0 18.1----29.64- 54.9 43.2 42.1---
2024-04-14 02:06 pm W 11.1 15.9----29.64- 55.0 43.3 42.8---
2024-04-14 02:00 pm W 13.0 15.0----29.63+0.03 54.7 43.3 42.8---
2024-04-14 01:54 pm W 9.9 13.0----29.63- 55.0 43.5 43.0---
2024-04-14 01:48 pm W 9.9 13.0----29.63- 55.0 43.5 43.0---
2024-04-14 01:42 pm W 9.9 15.0----29.62- 54.3 43.7 43.3---
2024-04-14 01:36 pmWNW 11.1 15.9----29.62- 54.1 43.5 43.5---
2024-04-14 01:30 pm W 8.0 12.0----29.62- 54.9 43.7 44.1---
2024-04-14 01:24 pmWNW 8.9 12.0----29.62- 53.4 43.5 43.5---
2024-04-14 01:18 pmWNW 11.1 13.0----29.62- 52.5 43.2 43.2---
2024-04-14 01:12 pmWNW 9.9 15.0----29.62- 52.3 43.2 43.9---
2024-04-14 01:06 pm W 11.1 14.0----29.62- 52.3 43.0 44.4---
2024-04-14 01:00 pm W 9.9 14.0----29.62+0.02 52.7 43.0 45.3---
2024-04-14 12:54 pm W 8.9 13.0----29.62- 51.3 43.0 44.6---
2024-04-14 12:48 pm W 8.9 12.0----29.62-- 43.0----
2024-04-14 12:42 pm W 9.9 12.0----29.61-- 43.2----
2024-04-14 12:36 pmWNW 8.0 12.0----29.61-------
2024-04-14 12:30 pm NW 8.9 12.0----29.61-- 43.9----
2024-04-14 12:24 pm NE 1.0 5.1----29.61-- 43.9----
2024-04-14 12:18 pmNNE 2.9 4.1----29.61- 43.9 43.3 41.7---
2024-04-14 12:12 pm E 1.9 2.9----29.62- 42.4 42.8 40.5---
2024-04-14 12:06 pmSSE 1.0 1.9----29.61- 43.2 42.8 41.4---
2024-04-14 12:00 pm SE 1.9 2.9----29.61+0.02 41.7 42.6 40.6---
2024-04-14 11:54 amESE 1.9 4.1----29.61- 41.2 42.6 40.3---
2024-04-14 11:48 am E 2.9 4.1----29.61- 40.8 42.6 39.9---
2024-04-14 11:42 amENE 1.0 1.9----29.62- 41.9 42.6 40.5---
2024-04-14 11:36 amENE 1.9 2.9----29.61- 41.4 42.6 40.3---
2024-04-14 11:30 am E 1.9 4.1----29.61-- 42.4----
2024-04-14 11:24 amENE 1.9 4.1----29.61-- 42.4----
2024-04-14 11:18 am E 1.9 2.9----29.61-- 42.4----
2024-04-14 11:12 am E 2.9 2.9----29.61-- 42.4----
2024-04-14 11:06 amENE 1.9 4.1----29.61-- 42.4----
2024-04-14 11:00 am NE 2.9 5.1----29.60+0.03 41.0 42.6 40.5---
2024-04-14 10:54 am NE 2.9 4.1----29.60- 41.4 42.6 40.6---
2024-04-14 10:48 am NE 2.9 5.1----29.60- 41.2 42.6 40.6---
2024-04-14 10:42 amNNE 4.1 5.1----29.60- 41.2 42.6 39.9---
2024-04-14 10:36 am NE 2.9 5.1----29.59- 41.5 43.2 41.2---
2024-04-14 10:30 amNNE 4.1 7.0----29.59- 41.4 43.0 40.6---
2024-04-14 10:24 amNNE 5.1 6.0----29.60- 41.0 42.8 39.9---
2024-04-14 10:18 amNNE 5.1 6.0----29.60- 41.0 43.2 40.5---
2024-04-14 10:12 am N 4.1 6.0----29.60- 41.0 43.0 40.8---
2024-04-14 10:06 amNNE 5.1 7.0----29.59- 41.0 43.0 40.6---
2024-04-14 10:00 am N 5.1 6.0----29.60+0.03- 43.2----
2024-04-14 09:54 am N 2.9 4.1----29.59-- 43.2----
2024-04-14 09:48 amNNE 4.1 5.1----29.59- 41.0 43.2 40.3---
2024-04-14 09:42 amNNE 1.9 4.1----29.59- 41.4 43.2 40.8---
2024-04-14 09:36 amNNE 1.9 4.1----29.59- 40.8 43.2 40.5---
2024-04-14 09:30 am NE 2.9 4.1----29.58-- 43.2----
2024-04-14 09:24 amNNE 2.9 2.9----29.59-- 43.2----
2024-04-14 09:18 am NE 2.9 5.1----29.59- 39.7 43.2 39.7---
2024-04-14 09:12 amENE 5.1 5.1----29.59- 39.2 43.2 39.2---
2024-04-14 09:06 am NE 5.1 6.0----29.59- 39.2 43.2 39.2---
2024-04-14 09:00 am NE 5.1 5.1----29.59- 39.2 43.2 39.2---
2024-04-14 08:54 amENE 4.1 4.1----29.58- 39.4 43.2 39.4---
2024-04-14 08:48 am-------29.58- 39.6 43.2 39.6---
2024-04-14 08:42 am-------29.58- 39.2 43.2 39.2---
2024-04-14 08:36 am-------29.58- 39.0 43.0 39.0---
2024-04-14 08:30 am E 4.1 5.1----29.58-- 43.0----
2024-04-14 08:24 am E 4.1 4.1----29.58-- 43.0----
2024-04-14 08:18 amESE 2.9 4.1----29.58- 39.6 43.0 39.6---
2024-04-14 08:12 amESE 2.9 4.1----29.58- 39.7 43.0 39.7---
2024-04-14 08:06 am E 1.9 1.9----29.58- 40.3 43.0 40.3---
2024-04-14 08:00 amESE 1.9 1.9----29.58-0.03- 42.8----
2024-04-14 07:54 am SE 1.0 1.9----29.58-- 42.8----
2024-04-14 07:48 am SE 1.9 1.9----29.58-- 42.8----
2024-04-14 07:42 am SE 1.9 4.1----29.58-- 42.8----
2024-04-14 07:36 am SE 4.1 4.1----29.58-- 42.8----
2024-04-14 07:30 am SE 4.1 5.1----29.58- 39.6 42.6 39.6---
2024-04-14 07:24 am SE 5.1 8.9----29.58- 39.2 42.8 39.2---
2024-04-14 07:18 am SE 8.9 11.1----29.57-------
2024-04-14 07:12 am SE 7.0 9.9----29.57-------
2024-04-14 07:06 am SE 7.0 9.9----29.57-------
2024-04-14 07:00 am SE 7.0 8.9----29.57-0.05 39.6 42.6 39.6---
2024-04-14 06:54 am SE 6.0 8.0----29.57- 39.6 42.6 39.6---
2024-04-14 06:48 am SE 6.0 7.0----29.57-- 42.6----
2024-04-14 06:42 am SE 5.1 7.0----29.58-- 42.6----
2024-04-14 06:36 am SE 5.1 7.0----29.58-- 42.8----
2024-04-14 06:30 am SE 6.0 7.0----29.57- 39.2 42.8 39.2---
2024-04-14 06:24 am SE 5.1 7.0----29.57- 39.0 42.8 39.0---
2024-04-14 06:18 am E 7.0 8.9----29.57- 39.0 42.8 39.0---
2024-04-14 06:12 am E 8.0 9.9----29.57- 38.8 42.6 38.8---
2024-04-14 06:06 am E 8.0 9.9----29.58- 39.0 42.6 39.0---
2024-04-14 06:00 amENE 6.0 8.0------ 38.8- 38.8---
2024-04-14 05:54 amENE 6.0 8.0------ 38.8- 38.8---
2024-04-14 05:48 amENE 7.0 8.0------ 38.8 42.8 38.8---
2024-04-14 05:42 amENE 7.0 8.0------ 38.8 42.8 38.8---
2024-04-14 05:36 amENE 6.0 8.0------ 39.0 42.8 39.0---
2024-04-14 05:30 amENE 7.0 7.0----29.59-- 43.0----
2024-04-14 05:24 amENE 5.1 7.0----29.59-- 43.3----
2024-04-14 05:18 amENE 4.1 6.0----29.59- 39.6 43.3 39.6---
2024-04-14 05:12 am E 7.0 8.0----29.59- 39.9 43.3 39.9---
2024-04-14 05:06 am E 6.0 7.0----29.60- 39.6 43.5 39.6---
2024-04-14 05:00 am E 6.0 9.9----29.61-0.10 39.6 43.5 39.6---
2024-04-14 04:54 am E 9.9 11.1----29.61- 39.7 43.5 39.7---
2024-04-14 04:48 am E 9.9 11.1----29.61- 39.6 43.5 39.6---
2024-04-14 04:42 am E 8.0 9.9----29.61- 39.6 43.5 39.6---
2024-04-14 04:36 amESE 9.9 12.0----29.61- 39.7 43.5 39.7---
2024-04-14 04:30 amESE 9.9 13.0----29.61- 39.7 43.5 39.7---
2024-04-14 04:24 amESE 12.0 13.0----29.60- 39.9 43.5 39.9---
2024-04-14 04:18 amESE 12.0 14.0----29.61- 39.9 43.5 39.9---
2024-04-14 04:12 am SE 13.0 15.0----29.60- 39.6 43.5 39.6---
2024-04-14 04:06 am SE 14.0 15.0----29.61- 39.6 43.5 39.6---
2024-04-14 04:00 am SE 12.0 14.0----29.61-0.12 39.4 43.5 39.4---
2024-04-14 03:54 amESE 13.0 15.0----29.62- 39.4 43.5 39.4---
2024-04-14 03:48 amESE 13.0 14.0----29.63- 39.2 43.5 39.2---
2024-04-14 03:42 am E 11.1 13.0----29.64- 39.0 43.5 39.0---
2024-04-14 03:36 am E 12.0 14.0----29.65- 38.8 43.5 38.8---
2024-04-14 03:30 amESE 12.0 14.0----29.65- 39.0 43.5 39.0---
2024-04-14 03:24 amESE 12.0 14.0----29.65- 39.0 43.5 39.0---
2024-04-14 03:18 amESE 12.0 15.0----29.65- 39.2 43.5 39.2---
2024-04-14 03:12 amESE 13.0 15.0----29.65- 39.4 43.5 39.4---
2024-04-14 03:06 amESE 13.0 15.0----29.66- 39.2 43.5 39.2---
2024-04-14 03:00 amESE 13.0 15.0----29.67-0.10 39.4 43.5 38.5---
2024-04-14 02:54 amESE 12.0 14.0----29.68- 39.6 43.5 39.0---
2024-04-14 02:48 amESE 13.0 15.9----29.68- 39.7 43.5 38.8---
2024-04-14 02:42 amESE 14.0 15.9----29.69- 40.1 43.5 38.3---
2024-04-14 02:36 amESE 9.9 11.1----29.69- 39.6 43.5 39.0---
2024-04-14 02:30 amESE 8.0 8.9----29.70- 39.7 43.5 39.2---
2024-04-14 02:24 am E 8.0 8.9----29.71- 40.1 43.3 39.0---
2024-04-14 02:18 amESE 7.0 8.9----29.71- 40.3 43.3 38.7---
2024-04-14 02:12 am SE 7.0 8.9----29.71- 40.1 43.3 39.6---
2024-04-14 02:06 am SE 5.1 8.0----29.71- 39.4 43.3 39.4---
2024-04-14 02:00 am E 7.0 8.0----29.71-0.09 39.0 43.3 39.0---
2024-04-14 01:54 am E 6.0 7.0----29.72- 39.2 43.3 39.2---
2024-04-14 01:48 am E 4.1 7.0----29.73- 39.4 43.3 39.2---
2024-04-14 01:42 am E 5.1 7.0----29.74- 39.7 43.3 39.4---
2024-04-14 01:36 amENE 6.0 8.9----29.73- 39.4 43.3 39.4---
2024-04-14 01:30 am E 8.9 12.0----29.72- 40.1 43.3 39.2---
2024-04-14 01:24 am E 11.1 12.0----29.73- 40.1 43.3 38.3---
2024-04-14 01:18 am E 8.9 11.1----29.74- 40.1 43.3 38.1---
2024-04-14 01:12 am E 8.9 11.1----29.73- 39.6 43.3 39.2---
2024-04-14 01:06 am E 9.9 11.1----29.72- 39.2 43.5 39.2---
2024-04-14 01:00 amESE 8.0 8.9----29.74-0.10 39.4 43.3 39.4---
2024-04-14 12:54 amESE 8.0 8.9----29.74- 39.4 43.5 39.4---
2024-04-14 12:48 amESE 5.1 7.0----29.74- 39.6 43.5 39.6---
2024-04-14 12:42 amESE 7.0 8.0----29.74- 40.3 43.5 39.7---
2024-04-14 12:36 amESE 7.0 8.0----29.75- 40.6 43.5 39.4---
2024-04-14 12:30 amESE 8.0 8.9----29.75- 40.8 43.5 38.8---
2024-04-14 12:24 am SE 7.0 8.9----29.75- 40.8 43.5 39.2---
2024-04-14 12:18 amESE 8.0 8.0----29.75- 40.5 43.5 39.7---
2024-04-14 12:12 amESE 7.0 8.9----29.75- 40.6 43.5 39.7---
2024-04-14 12:06 amESE 8.0 8.9----29.76- 40.6 43.5 39.6---
2024-04-14 12:00 amESE 7.0 8.0----29.77-0.07 40.8 43.5 39.9---
2024-04-13 11:54 pm SE 6.0 7.0----29.77- 40.6 43.5 39.9---
2024-04-13 11:48 pm SE 7.0 8.0----29.77- 40.1 43.5 39.9---
2024-04-13 11:42 pmESE 5.1 5.1----29.77- 39.4 43.5 39.4---
2024-04-13 11:36 pm E 2.9 4.1----29.78- 39.0 43.3 39.0---
2024-04-13 11:30 pmESE 5.1 5.1----29.78- 39.2 43.3 39.2---
2024-04-13 11:24 pm E 2.9 5.1----29.79- 39.2 43.3 38.8---
2024-04-13 11:18 pm E 2.9 5.1----29.79- 39.4 43.2 38.8---
2024-04-13 11:12 pm E 4.1 5.1----29.80- 39.6 43.2 38.5---
2024-04-13 11:06 pmENE 1.9 4.1----29.81- 39.4 43.2 39.2---
2024-04-13 11:00 pm E 2.9 4.1----29.80-0.04 39.4 43.2 39.2---
2024-04-13 10:54 pmESE 2.9 2.9----29.80- 39.4 43.2 39.2---